Home   Weather   Płock   Past weeks

Flag for Poland Past Weather in Płock, Poland — Yesterday and Last 2 Weeks

Now
44 °F

Rain. Cloudy.


Feels Like: 44 °F
Forecast: 24 / 43 °F
Wind: 1 mph from South

Location: Plock

Current Time: Dec 11, 2016 at 12:50:28 pm

Latest Report: Dec 11, 2016 at 12:00 pm


Visibility: 2 mi

Pressure: 29.63 "Hg

Humidity: 97%

Dew Point: 43 °F

Location of PłockLocation

Past Weather in Płock — Graph

°F

Płock Temperature Yesterday

Maximum temperature yesterday: 50 °F (at 1:00 pm)
Minimum temperature yesterday: 45 °F (at 5:00 am)
Average temperature yesterday: 47 °F

High & Low Weather Summary for the Past Weeks

 TemperatureHumidityPressure
High50 °F (Dec 10, 1:00 pm)98% (Dec 2, 12:00 am)30.63 "Hg (Dec 2, 12:00 am)
Low24 °F (Nov 28, 7:00 pm)64% (Nov 30, 6:00 am)29.32 "Hg (Dec 2, 1:00 am)
Average36 °F89%30.08 "Hg
* Reported Nov 26 11:00 am — Dec 11 11:00 am, Płock, Weather by CustomWeather, © 2016

Note: Actual official high and low records may vary slightly from our data, if they occured in-between our weather recording intervals... More about our weather records

Advertising

Płock Weather History for the Previous 24 Hours

Scroll right to see more
 ConditionsComfort  
Time TempWeatherWind HumidityBarometerVisibility
11:00 am
Sun, Dec 11
44 °FRain. Cloudy.2 mph97%29.69 "Hg1 mi
10:00 am44 °FRain. Cloudy.2 mph96%29.74 "Hg1 mi
9:00 am44 °FLight rain. Cloudy.3 mph95%29.77 "Hg2 mi
8:00 am44 °FFog.3 mph95%29.80 "Hg2 mi
7:00 am44 °FFog.5 mph93%29.83 "Hg2 mi
6:00 am44 °FFog.6 mph92%29.85 "Hg3 mi
5:00 am45 °FFog.6 mph92%29.88 "Hg3 mi
4:00 am46 °FFog.5 mph91%29.89 "Hg4 mi
3:00 am46 °FFog.7 mph87%29.92 "Hg5 mi
2:00 am47 °FFog.8 mph87%29.93 "Hg6 mi
1:00 am47 °FFog.8 mph88%29.93 "Hg5 mi
12:00 am47 °FFog.7 mph89%29.94 "Hg4 mi
11:00 pm
Sat, Dec 10
47 °FFog.6 mph92%29.95 "Hg3 mi
10:00 pm48 °FFog.8 mph90%29.94 "Hg4 mi
9:00 pm48 °FFog.8 mph91%29.93 "Hg4 mi
8:00 pm48 °FFog.8 mph91%29.93 "Hg3 mi
7:00 pm48 °FCool.8 mph93%29.93 "Hg4 mi
6:00 pm47 °FDrizzle. Overcast.7 mph94%29.93 "Hg1 mi
5:00 pm48 °FFog.8 mph93%29.92 "Hg3 mi
4:00 pm49 °FCool.9 mph93%29.90 "Hg4 mi
3:00 pm49 °FDrizzle. Cloudy.8 mph93%29.90 "Hg2 mi
2:00 pm50 °FDrizzle. Cloudy.5 mph93%29.90 "Hg2 mi
1:00 pm50 °FDrizzle. Cloudy.6 mph93%29.90 "Hg3 mi
12:00 pm49 °FLight rain. Cloudy.8 mph93%29.91 "Hg2 mi
Weather by CustomWeather, © 2016

See weather overviewHow to use our weather pages